www.pogodaiklimat.ru

Погода и климат >> Архив погоды >> Нигер >> Maradi


ПОГОДА в Maradi

  • Прогноз погоды в Maradi
  • Монитор погоды в Maradi
  • Климат города

АРХИВ ПОГОДЫ в Maradi

Время (UTC), дата Ветер
(напр.,м/с)
 
Видим.   Явления Облачность Т
(С)
Тd
(С)
f
(%)
Тe
(С)
Тes
(С)
Комфортность P
(гПа)
Po
(гПа)
Тmin
(С)
Tmax
(С)
R
(мм)
R24
(мм)
S
(см)
06 6.12 В 8 10 км 9/0
[Ac trans Cs]
+17.1 +1.8 36 +16 +16 1014.5 972.2 +16.6
09 6.12 11 пыльный позёмок н/о +22.7 +1.1 24 -27 -27 1015.4 973.4
12 6.12 В 14 10 км 9/0
[Cs]
+29.0 +0.4 16 +27 +27 жарко 1013.5 971.6
15 6.12 СВ 14 10 км 9/0
[Cs]
+30.0 +0.8 15 +27 +27 жарко 1011.3 969.5
18 6.12 В 4 10 км 9/0
[Cs]
+25.4 +3.7 25 +25 +25 комфорт 1012.3 970.1 +30.7
21 6.12 В 6 10 км 9/0
[Cs]
+21.0 +4.6 34 +22 +22 комфорт 1013.5 971.2
03 7.12 В 6 10 км 9/0
[Cs]
+15.5 +3.9 46 +14 +14 1013.5 971.4
06 7.12 В 10 10 км 9/0
[Cs]
+15.4 +4.3 47 +13 +13 1014.9 972.4 +14.5
09 7.12 В 10 2400 м пыль 9/0
[Cs]
+23.5 +4.0 28 +23 +23 комфорт 1016.0 973.8
12 7.12 В 14 2600 м пыль 9/0
[Cs]
+28.4 +3.2 20 +27 +27 жарко 1013.5 971.5
15 7.12 СВ 12 2900 м пыль 9/0
[Cs]
+29.7 +1.3 16 +27 +27 жарко 1011.7 969.6
18 7.12 В 4 3000 м пыль 9/0
[Cs]
+24.8 +4.8 27 +24 +24 комфорт 1013.3 970.8 +30.5
21 7.12 СВ 4 4600 м пыль 9/0
[Cs]
+21.6 +5.8 36 +22 +22 комфорт 1014.6 972.4
03 8.12 В 6 8000 м пыль 9/0
[Cs]
+17.0 +4.7 44 +16 +16 1013.6 971.6
06 8.12 В 6 10 км 9/0
[Cs]
+14.3 +4.6 52 +13 +13 1015.2 972.6 +14.0
09 8.12 В 14 10 км 9/0
[Cs]
+24.4 +3.7 26 +24 +24 комфорт 1016.7 974.5
12 8.12 В 10 8000 м пыль 9/0
[Cs]
+29.5 +1.6 17 +27 +28 жарко 1014.1 972.3
15 8.12 СВ 10 10 км 9/0
[Cs]
+30.5 +2.0 16 +28 +28 жарко 1012.0 970.1
18 8.12 СВ 4 10 км 9/0
[Cs]
+24.7 +5.5 29 +24 +24 комфорт 1013.9 971.3 +31.0
21 8.12 В 6 10 км 6/0
[Ci sp]
+20.5 +4.6 35 +21 +21 комфорт 1015.3 973.1
06 9.12 В 10 10 км 6/0
[Ci sp]
+15.5 +3.3 44 +13 +13 1017.4 974.8 +14.5
09 9.12 В 16 10 км 6/0
[Ci sp]
+24.0 +2.6 25 +23 +23 комфорт 1018.7 976.3
12 9.12 В 12 10 км 6/0
[Ci sp]
+28.7 +3.1 19 +27 +27 жарко 1016.3 974.1
15 9.12 В 8 10 км 6/0
[Ci sp]
+29.5 0.0 15 +27 +28 жарко 1014.4 972.2
18 9.12 СВ 6 10 км 9/0
[Cs]
+23.1 +5.4 32 +23 +23 комфорт 1015.9 973.2 +30.4
21 9.12 СВ 8 10 км 9/0
[Cs]
+21.5 +1.3 26 +21 +21 комфорт 1017.8 975.5
03 10.12 СВ 8 10 км 9/0
[Cs]
+15.5 +2.4 41 +14 +14 1017.3 975.0
06 10.12 В 12 10 км 9/0
[Cs]
+13.8 +1.9 44 +11 +11 1018.4 975.5 +13.5
09 10.12 В 14 10 км 6/0
[Ci sp]
+23.5 -1.9 18 +22 +22 комфорт 1019.2 976.8
12 10.12 В 10 10 км 6/0
[Ci sp]
+28.8 +0.3 16 +26 +27 жарко 1016.1 974.0
15 10.12 СВ 8 10 км 6/0
[Ci sp]
+29.6 +0.2 15 +27 +28 жарко 1013.8 971.7
18 10.12 СВ 4 10 км 8/0
[Cs]
+24.5 +5.2 29 +24 +24 комфорт 1014.9 972.3 +30.3
21 10.12 В 6 10 км 6/0
[Ci sp]
+19.5 +2.7 33 +19 +19 1016.5 974.1
03 11.12 В 6 10 км 4/0
[Ci sp]
+14.0 +5.3 56 +12 +12 1015.4 973.1
06 11.12 В 10 10 км 9/0
[Ac cast Ci sp]
+13.4 +2.2 47 +11 +11 1016.9 974.1 +12.9
12 11.12 В 12 2600 м пыль 9/0
[Ac cast Cs]
+28.0 +2.0 19 +26 +26 жарко 1016.0 973.8
15 11.12 В 12 4500 м пыль 9/0
[Cs]
+28.6 +1.1 17 +26 +26 жарко 1014.2 971.8
18 11.12 В 6 4500 м пыль 9/0
[Cs]
+24.4 +5.3 29 +24 +24 комфорт 1015.8 973.0 +29.4
21 11.12 В 4 6000 м пыль 9/0
[Ac lent Cs]
+22.0 +5.3 34 +22 +22 комфорт 1016.7 974.4
03 12.12 В 6 10 км 9/0
[Cs]
+16.5 +2.4 39 +16 +16 1015.4 973.2
06 12.12 В 8 10 км 9/0
[Ac cast Cs]
+15.0 +1.6 40 +13 +13 1016.5 973.9 +15.0
09 12.12 В 16 8000 м пыльный позёмок 9/0
[Ac trans Cs]
+22.9 -0.8 21 +22 +22 комфорт 1017.9 975.6
12 12.12 В 16 7000 м 9/0
[Ac trans Cs]
+28.5 -0.9 15 +26 +26 жарко 1015.4 973.5
15 12.12 В 8 7000 м пыль 9/0
[Ac trans Cs]
+29.5 -2.3 13 +26 +27 жарко 1014.0 971.9
18 12.12 В 4 7000 м пыль 9/0
[Ac trans Cs]
+24.5 +4.2 27 +24 +24 комфорт 1015.2 972.6 +30.0
21 12.12 В 6 10 км 9/0
[Ac trans Cs]
+20.5 +2.8 31 +21 +21 комфорт 1016.8 974.4

 

Местоположение метеостанции Maradi (Нигер): широта 13.47 долгота 7.08 высота над уровнем моря 373 м.

В архиве по умолчанию представлена погода в Maradi за последнюю неделю. Архивные данные за месяц целиком и за предыдущие месяцы, начиная с января 2011 года, Вы можете получить, выбрав интересующий диапазон дат из раскрывающегося списка и нажав кнопку "Ввод!".


*Определитесь, кто Вы:
робот инопланетянин человек

Внимание! Время в таблицах - всемирное. Для получения местного времени необходимо прибавить поправку, которая в Maradi равна 1 ч.

Смотрите также архив погоды в соседних городах и на ближайших метеорологических станциях:

Погода в Birni-Nkonni (Нигер) (201 км)
Погода в Magaria (Нигер) (208 км)
Погода в Zinder (Нигер) (208 км)
Погода в Cano (Нигерия) (223 км)
Погода в Tahoua (Нигер) (253 км)
Погода в Goure (Нигер) (353 км)
Погода в Yelwa (Нигерия) (384 км)
Погода в Agadez (Нигер) (401 км)
Погода в Dosso (Нигер) (423 км)
Погода в Gaya (Нигер) (432 км)

Пояснения к столбцам:

Ветер - указаны скорость ветра в м/с - средняя за 10 мин, порывы в срок и между сроками (в фигурных скобках) и направление, откуда дует ветер: С - северный, СВ - северо-восточный, В - восточный, ЮВ - юго-восточный, Ю - южный, ЮЗ - юго-западный, З - западный, СЗ - северо-западный.
Видимость - горизонтальная дальность видимости в метрах или километрах. При видимости от 1 до 10 км при отсутствии осадков обычно наблюдается дымка, при ухудшении видимости до 1 км и менее - туман. В сухую погоду видимость может ухудшаться дымом, пылью или мглою.
Явления - указаны атмосферные явления, наблюдавшиеся в срок или в последний час перед сроком; фигурными скобками обозначены явления, наблюдавшиеся между сроками (за 1-3 часа до срока); квадратными скобками обозначены град или гололедные отложения с указанием их диаметра в мм.
Облачность - указаны через наклонную черту общая и нижняя облачность в баллах и высота нижней границы облаков в метрах; квадратными скобками обозначены формы облаков: Ci - перистые, Cs - перисто-слоистые, Cc - перисто-кучевые, Ac - высококучевые, As - высокослоистые, Sc - слоисто-кучевые, Ns - слоисто-дождевые, Cu - кучевые, Cb - кучево-дождевые. Подробнее классификацию облаков см. в Атласе облаков (PDF).
T - Температура воздуха - температура, измеренная на высоте 2 м над землей.
Td - Температура точки росы - температура, при понижении до которой содержащийся в воздухе водяной пар достигнет насыщения.
f - Относительная влажность воздуха - влажноcть воздуха, измеренная на высоте 2 м над землей.
Te - Эффективная температура - температура, которую ощущает одетый по сезону человек в тени. Характеристика душности погоды. При расчете учитывается влияние влажности воздуха и скорости ветра на теплоощущения человека.
Tes - Эффективная температура на солнце - температура, которую ощущает человек, с поправкой на солнечный нагрев. Характеристика знойности погоды. Зависит от высоты солнца над горизонтом, облачности и скорости ветра. Ночью, в пасмурную погоду, а также при ветре 12 м/с и более поправка равна нулю.
P - Атмосферное давление - приведенное к уровню моря атмосферное давление.
Po - Атмосферное давление - измеренное на уровне метеостанции атмосферное давление.
Tmin - Минимальная температура - минимум температуры воздуха на высоте 2 м над землей.
Tmax - Максимальная температура - максимум температуры воздуха на высоте 2 м над землей.
R - Количество осадков - Количество выпавших осадков за период времени, мм. При наведении курсора мыши на число - период времени, за который выпало указанное количество осадков.
R24 - Количество осадков - Количество выпавших осадков за 24 часа, мм.
S - Снежный покров - Высота снежного покрова, см. При наведении курсора мыши на число - состояние снежного покрова и степень покрытия местности в баллах.